Weather in Sarafanovo

Russia / Chelyabinsk Oblast     54˚53′38″N   60˚15′53″E
temp.,
°C
wind,
m/s
gust,
m/s
humid.,
%
clouds,
%
prec.,
mm/h
press.,
hPa
HPBL,
m
17 january, sun
sun1723:00−10˚sw498417 0.0 1007185
02:00−12˚sw49860 0.0 1008161
05:00−11˚ssw614820 0.0 1008425
08:00−12˚ssw513870 0.0 1005434
11:00−11˚ssw512867 0.0 1004703
14:00−9˚wsw4127696 0.0 10041423
17:00−15˚w4128281 0.0 1007711
20:00−17˚w415855 0.0 1011661
18 january, mon
mon1823:00−18˚wnw415863 0.0 1013497
02:00−18˚wnw414862 0.0 1015481
05:00−20˚w314891 0.0 1018420
08:00−22˚w34920 0.0 101995
11:00−19˚w23900 0.0 1021101
14:00−15˚sw238531 0.0 1020228
17:00−18˚ssw228816 0.0 102020
20:00−21˚wsw228828 0.0 102020
19 january, tue
tue1923:00−21˚wsw119061 0.0 102020
02:00−20˚wnw1190100 0.0 101920
05:00−18˚ne1190100 0.0 101820
08:00−18˚ne1292100 0.0 1018111
11:00−17˚ene1288100 0.0 1017205
14:00−16˚ene2391100 0.1 1016290
17:00−17˚ene2396100 0.2 1016251
20:00−18˚ene2497100 0.4 1016264
20 january, wed
wed2023:00−18˚ene2397100 0.9 1015250
02:00−18˚ne2498100 2.1 1015221
05:00−19˚nne2398100 3.7 1014214
08:00−20˚nne1198100 0.6 101528
11:00−20˚wnw119797 0.6 101642
14:00−17˚ssw128958 0.0 1015232
17:00−20˚sse129673 0.0 101520
20:00−20˚ssw1198100 0.1 101620
21 january, thu
thu2123:00−19˚wsw1197100 0.2 101620
02:00−19˚wnw119695 0.0 101620
05:00−20˚n119896 0.1 101520
08:00−20˚nnw1198100 0.1 101524
11:00−20˚wnw3890100 0.3 1015591
14:00−19˚wnw4983100 0.0 1015672
17:00−22˚wnw289096 0.0 1016271
20:00−22˚wnw3108971 0.0 1018357